Regional Weather Roundup
Issued by NWS

Home | Current Version | Previous Version | Text Only | Print | Product List | Glossary Off
Versions: 1 2 3 4 5 6 7 8 9 10 11 12 13 14 15 16 17 18 19 20 21 22 23 24 25 26 27 28 29 30 31 32 33 34 35 36 37 38 39 40 41 42 43 44 45 46 47 48 49 50

539
ASUS43 KMKX 060421
RWRWI

WISCONSIN REGIONAL WEATHER ROUNDUP
NATIONAL WEATHER SERVICE MILWAUKEE/SULLIVAN WI
1100 PM CDT THU MAY 05 2016

NOTE: "FAIR" INDICATES FEW OR NO CLOUDS BELOW 12,000 FEET WITH NO
SIGNIFICANT WEATHER AND/OR OBSTRUCTIONS TO VISIBILITY.

WIZ001-002-006>008-014>016-023>028-060500-
NORTHWEST WISCONSIN

CITY           SKY/WX    TMP DP  RH WIND       PRES   REMARKS
SUPERIOR ARPT  CLEAR     65  41  41 SW8       29.78S
ASHLAND        CLEAR     62  40  44 S9        29.81F
HAYWARD        CLEAR     59  39  47 S6        29.86S
SIREN          CLEAR     62  38  40 S5        29.85F
CUMBERLAND     CLEAR     54  37  54 S6        29.88S
RICE LAKE      CLEAR     59  38  44 SE5       29.89F
CHETEK         CLEAR     55  41  59 E6        29.88F
LADYSMITH      CLEAR     58  39  49 S5        29.90F
EAU CLAIRE     CLEAR     59  39  47 S5        29.89F
MENOMONIE      CLEAR     55  40  56 CALM      29.89F
NEW RICHMOND   CLEAR     58  40  51 S6        29.88F
OSCEOLA        CLEAR     60  39  47 S5        29.89F
$$

WIZ003>005-009-010-017-018-060500-
NORTH CENTRAL WISCONSIN

CITY           SKY/WX    TMP DP  RH WIND       PRES   REMARKS
MANITOWISH WTR CLEAR     53  39  59 S5        29.89F
ARBOR VITAE    CLEAR     55  40  57 S3        29.90F
WOODRUFF       CLEAR     55  40  57 S3        29.90F
RHINELANDER    CLEAR     52  38  58 S6        29.92F
EAGLE RIVER    CLEAR     52  36  54 CALM      29.91S
LAND O LAKES   CLEAR     55  37  51 CALM      29.91S
PHILLIPS       PTCLDY    55  39  55 S3        29.89F
TOMAHAWK       CLEAR     49  39  68 CALM      29.92F
MEDFORD        PTCLDY    56  39  54 S5        29.91S
MERRILL        CLEAR     53  42  66 CALM      29.93F
$$

WIZ029-030-035-036-043>047-060500-
CENTRAL WISCONSIN

CITY           SKY/WX    TMP DP  RH WIND       PRES   REMARKS
WAUSAU         PTCLDY    57  46  66 S3        29.92S
MOSINEE        CLOUDY    52  41  66 CALM      29.95S
MARSHFIELD     CLOUDY    57  39  51 S5        29.92S
STEVENS POINT  PTCLDY    49  37  61 CALM      29.94F
WAUPACA        CLEAR     52  38  59 CALM      29.94F
WAUTOMA        CLEAR     46  38  73 CALM      29.96S
WISC RAPIDS    MOCLDY    54  41  61 S3        29.94F
CAMP DOUGLAS     N/A     51  49  95 E3        29.93F
$$

WIZ011>013-019>022-031-037>040-048>050-060500-
NORTHEAST WISCONSIN

CITY           SKY/WX    TMP DP  RH WIND       PRES   REMARKS
ANTIGO         CLEAR     51  38  63 CALM      29.93F
SHAWANO        PTCLDY    59  34  39 SW3       29.92F
OCONTO         PTCLDY    51  46  86 S6        29.91F
STURGEON BAY   CLEAR     46  37  71 S9        29.96S
GREEN BAY      CLOUDY    52  42  69 S5        29.93S
MANITOWOC      CLEAR     46  38  73 MISG      29.96S
APPLETON       PTCLDY    52  36  54 VRB3      29.93R
CLINTONVILLE   PTCLDY    50  37  62 CALM      29.92F
OSHKOSH        CLEAR     50  38  63 SW5       29.94S
$$

WIZ032>034-041-042-053>061-060500-
SOUTHWEST WISCONSIN

CITY           SKY/WX    TMP DP  RH WIND       PRES   REMARKS
LA CROSSE      CLEAR     60  44  55 S7        29.93S
SPARTA         PTCLDY    50  42  74 CALM      29.95S
VIROQUA        CLEAR     58  37  44 S6        29.96S
BOSCOBEL       CLOUDY    53  42  66 CALM      29.97S
PRAIRIE DU CHI CLOUDY    54  44  68 CALM      29.96F
PLATTEVILLE    CLEAR     55  37  52 S5        29.97F
$$

WIZ056-057-062-063-064-067-068-060500-
SOUTH CENTRAL WISCONSIN

CITY           SKY/WX    TMP DP  RH WIND       PRES   REMARKS
REEDSBURG      CLEAR     50  40  66 CALM      29.95F
BARABOO/DELLS  CLEAR     50  37  61 S3        29.95F
LONE ROCK      CLEAR     51  42  71 CALM      29.97S
MINERAL POINT  CLEAR     55  28  35 S5        29.97F
MADISON        CLEAR     48  36  63 CALM      29.97R
MIDDLETON      CLEAR     46  41  83 CALM      29.98R
WATERTOWN      CLEAR     45  40  82 CALM      29.96S
MONROE         CLEAR     55  36  47 W9        29.97F
JANESVILLE     CLEAR     48  37  66 CALM      29.97S
$$

WIZ051-052-058>065-066-070>072-060500-
SOUTHEAST WISCONSIN

CITY           SKY/WX    TMP DP  RH WIND       PRES   REMARKS
MILWAUKEE      PTCLDY    47  37  68 SW5       29.98S
WAUKESHA       CLEAR     45  37  76 CALM      29.98S
MILWAUKEE/TIMM CLEAR     46  36  66 CALM      29.98S
RACINE         CLEAR     43  36  76 SW3       29.99F
BURLINGTON     CLEAR     43  41  91 CALM      29.98S
KENOSHA        CLEAR     46  37  71 S5        29.98F
FOND DU LAC    CLEAR     45  38  76 S7        29.95S
SHEBOYGAN      CLEAR     43  37  79 S3        29.96S
WEST BEND      CLEAR     46  37  71 CALM      29.97S
JUNEAU         CLEAR     51  37  58 CALM      29.97S
$$

LSZ147-162-060500-
LAKE SUPERIOR

STATION/POSITION TIME  TEMP    WIND        PRES    WAVE
                       AIR SEA DIR/SP/G            HT/PER
                 (UTC) (F)     (DEG/KT/KT) (MB)    (FT/S)
W MID LAKE BUOY  0350   45 37  150/ 10/ 10 1009.6F   0
DEVILS ISLAND    0400   59     210/  5/  6 1008.7S
SAXON HARBOR     0340   65     190/  7/ 12 1009.1F
$$

LMZ867-665-643>646-060500-
LAKE MICHIGAN

STATION/POSITION TIME  TEMP    WIND        PRES    WAVE
                       AIR SEA DIR/SP/G            HT/PER
                 (UTC) (F)     (DEG/KT/KT) (MB)    (FT/S)
CHAMBERS ISLAND  0300   48     160/  3/  7 1013.9
N MID LAKE BUOY  0350   41 39  200/  8/ 10 1013.6F   0
NORTHPORT PIER   0300   47     160/  2/  5 1013.5S
ALGOMA LAKESHORE 0300          200/  8/  8   N/A
KEWAUNEE LAKESHO 0400   47     190/  4/  6 1013.5S
SHEBOYGAN LAKESH 0400   47     200/  7/  7 1015.3F
PORT WASHINGTON  0300   48     240/  3/  5 1015.9
S MID LAKE BUOY  0350   41 40  250/  6/  6 1015.4S   2/ 5
KENOSHA   LAKESH 0400   49     210/  5/  5 1015.2F
$$

TC  - TEMPERATURE IN CELSIUS
VSB - VISIBILITY IN STATUTE MILES
WCI - WIND CHILL INDEX
HX  - HEAT INDEX





USA.gov is the U.S. government's official web portal to all federal, state and local government web resources and services.